Overview Statistics Trail Chart Weather Telemetry Raw packets
 

This is the latest recevied weather packets stored in our database for station/object WP3OF-2. If no packets are shown the sender has not sent any weather packets the latest 10 day(s).

<< 93 94 95 96 97 98 99 >>
Time Temp. Humidity Pressure Rain* Wind** Luminosity Snow
1787927959 23.89° C 95% 1027.1 hPa 0 mm - 881 W/m² -
1787927653 23.89° C 95% 1027.1 hPa 0 mm - 881 W/m² -
1787927348 23.89° C 94% 1027.1 hPa 0 mm - 963 W/m² -
1787927044 23.89° C 95% 1027.1 hPa 0 mm - 575 W/m² -
1787926739 23.33° C 97% 1027.1 hPa 0 mm - 220 W/m² -
1787926437 23.33° C 95% 1027.1 hPa 0 mm - 389 W/m² -
1787926132 23.33° C 95% 1027.1 hPa 0 mm - 389 W/m² -
1787925831 23.33° C 94% 1027.1 hPa 0 mm - 993 W/m² -
1787925531 23.33° C 94% 1027.1 hPa 0 mm - 873 W/m² -
1787925226 22.78° C 96% 1027.1 hPa 0 mm - 825 W/m² -
1787924925 22.78° C 94% 1027.1 hPa 0 mm - 820 W/m² -
1787924624 22.78° C 94% 1027.1 hPa 0 mm - 793 W/m² -
1787924320 22.78° C 95% 1027.1 hPa 0 mm - 766 W/m² -
1787924021 23.33° C 92% 1026.7 hPa 0 mm - 713 W/m² -
1787923709 23.33° C 92% 1026.7 hPa 0 mm - 713 W/m² -
1787923405 23.33° C 92% 1026.7 hPa 0 mm - 713 W/m² -
1787923100 23.89° C 90% 1026.7 hPa 0 mm - 658 W/m² -
1787922794 22.78° C 93% 1026.3 hPa 0 mm - 596 W/m² -
1787922488 22.78° C 93% 1026.3 hPa 0 mm - 596 W/m² -
1787922187 22.78° C 93% 1026.3 hPa 0 mm - 596 W/m² -
1787921885 22.78° C 92% 1026.3 hPa 0 mm - 551 W/m² -
1787921580 22.22° C 92% 1026.3 hPa 0 mm - 348 W/m² -
1787921279 22.22° C 92% 1026.3 hPa 0 mm - 348 W/m² -
1787920975 22.78° C 93% 1026.3 hPa 0 mm - 398 W/m² -
1787920670 22.78° C 93% 1026.3 hPa 0 mm - 373 W/m² -

* Rain latest hour (hover to see other rain measurements)
** Current wind speed in m/s (hover to see current wind gust speed)